User: anonymous   Login
Location: Champs
(48.8539°N, 2.6040°E)
Time: 22:22:58
(UTC+00:00)
Language:

METEOR 2-5 DEB - Orbit

View from above orbital plane
View from above orbital plane
View from above satellite
View from above satellite

Ground track
Ground track

The orbit data is extracted from the following two-line orbital elements,

1 28595U 79095F   22220.54733304  .00004892  00000-0  13354-2 0  9997
2 28595  81.1819 306.0412 0012843  98.8288 261.4358 14.47174740939634
Epoch (UTC): 08 August 2022 13:08:09
Eccentricity: 0.0012843
inclination: 81.1819°
perigee height: 726 km
apogee height: 744 km
right ascension of ascending node: 306.0412°
argument of perigee: 98.8288°
revolutions per day: 14.47174740
mean anomaly at epoch: 261.4358°
orbit number at epoch: 93963

The dashed part of the orbit path shows where the satellite is in the earth's shadow,  

DLR